EUTE 2-F2

Satellite information

Favourite Embed

Satellite Type and Status

PAYLOADIN ORBIT

Key statistics

Satellite EUTE 2-F2 at a glance.

Uptime

12705

Days in orbit

Revolutions

≈ 1.0

Per day

Orbit

OTHER

Other

Inclination

14.8

Latest

Satellite identification and parameters

Extended collection of information and parameters for EUTE 2-F2.

Object identification

Identified? True

Debris? False

Object name: EUTE 2-F2

International designator: 1991-003B

Object number (NORAD): 21056

Object ID (CCSDS): 21056

Country: EUROPEAN TELECOMMUNICATIONS SATELLITE ORGANIZATION (EUTELSAT) (EUTE)

Current information (Y/N): Y

RCS size: LARGE

Orbital parameters

Period: 1455.369 minutes

Inclination: 14.8333 deg

SMA: 42541.111 km

Apoapsis: 36191.593 km

Periapsis: 36134.359 km

RAAN: 3.3483 deg

Eccentricy: 0.0006727

Argument of periapsis: 198.2569 deg

Mean anomaly: 178.6036 deg

Mean motion: 0.98944013 rev/day

Mean motion (dot): -0.0000028 rev/day2

B* drag term: 0.0 1/REarth

Two-line elements (TLE)

Creation date: Oct. 28, 2025, 2:18 a.m.

Reference frame: TEME

Reference center: EARTH

Epoch: Oct. 27, 2025, 12:57 p.m. UTC

TLE line 0: 0 EUTE 2-F2

TLE line 1: 1 21056U 91003B 25300.54003398 -.00000280 00000-0 00000-0 0 9990

TLE line 2: 2 21056 14.8333 3.3483 0006727 198.2569 178.6036 0.98944013113926

Live tracking on map

Real-time ground track for satellite EUTE 2-F2.

In-orbit conjunctions

A list of the most updated potential collisions computed for object EUTE 2-F2.

Target Orbit TCA Probability of collision Miss distance Type
EUTE 1-F1 (ECS 1) OTHER 2025-01-19 16:34:33 TBA 4454.0 (m) PAYLOAD
FENGYUN 2H AKM GEO 2024-07-01 20:45:10 TBA 3638.0 (m) ROCKET BODY

Associated space launch

Italy's first operational communications satellite was launched 15 January 1991 by an Ariane-44L H10 booster. Developed by a contractor team led by Alenia Spazio, Italsat carries ten active transponders plus five spares for 30/20 GHz and 50/40 GHz links with a capacity of 12,000 telephone circuits.

EUTE 2-F2 was lifted into orbit during the mission ‘Ariane 44L | Italsat 1’, on board a Ariane 44L space rocket.

The launch took place on Jan. 15, 1991, 11:10 p.m. from Ariane Launch Area 2.

For more information about the launch, click the button.

Launch to space Ariane 44L | Italsat 1
Ariane 44L | Italsat 1

Agency: N/A

Status: Launch Successful

Launch date: Jan. 15, 1991, 11:10 p.m. UTC

Rocket: Ariane 44L

Launch pad: Ariane Launch Area 2

Location: Guiana Space Centre, French Guiana

...

Latest news about this satellite

There are no fresh news available about this satellite. Check back as we update our databases every day.


Newsletter sign-up

Weekly statistics, charts and insights to help you stay on top of the space industry.